Tracking 29892 objects as of 21-Nov-2024
HD Live streaming from Space Station
objects crossing your sky now

FENGYUN 1C DEB

Track FENGYUN 1C DEB now!
10-day predictions


NORAD ID: 31737
Int'l Code: 1999-025CEL
Perigee: 573.7 km
Apogee: 799.6 km
Inclination: 98.0 °
Period: 98.3 minutes
Semi major axis: 7057 km
RCS: 0.0101 m2 (small)
Launch date: May 10, 1999
Source: People's Republic of China (PRC)
Launch site: Taiyaun Space Center, China (TSC)

Note: This is SATELLITE DEBRIS
Your satellite tracking list
Your tracking list is empty




NASA's NSSDC Master Catalog

Two Line Element Set (TLE):
1 31737U 99025CEL 24325.60470997  .00007438  00000-0  11778-2 0  9992
2 31737  97.9646   5.2587 0160086 164.2265 347.4725 14.64240395925532
Source of the keplerian elements: AFSPC